Regional Weather Roundup
Issued by NWS Newport/Morehead, NC

Current Version | Previous Version | Graphics & Text | Print | Product List | Glossary Off
Versions: 1 2 3 4 5 6 7 8 9 10 11 12 13 14 15 16 17 18 19 20 21 22 23 24 25 26 27 28 29 30 31 32 33 34 35 36 37 38 39 40 41 42 43 44 45 46 47 48 49 50

000
ASUS42 KMHX 231210
RWRMHX
WEATHER ROUNDUP FOR EASTERN NORTH CAROLINA
NATIONAL WEATHER SERVICE NEWPORT/MOREHEAD CITY NC
800 AM EDT TUE SEP 23 2014

NOTE: "FAIR" INDICATES FEW OR NO CLOUDS BELOW 12,000 FEET
WITH NO SIGNIFICANT WEATHER AND/OR OBSTRUCTIONS TO VISIBILITY

NCZ015>017-031-032-045>047-102-103-231300-
NORTH COAST

CITY           SKY/WX    TMP DP  RH WIND       PRES   REMARKS
EDENTON        CLOUDY    60  51  74 NE6       30.24R
ELIZABETH CITY CLOUDY    62  53  72 N12       30.24R
KITTY HAWK     CLOUDY    68  57  69 NE7       30.21R
MANTEO         CLOUDY    67  58  71 NE16      30.21S

$$

NCZ045>047-081-094-103-104-231300-
CENTRAL COAST

CITY           SKY/WX    TMP DP  RH WIND       PRES   REMARKS
FRISCO         CLOUDY    68  59  73 NE10      30.18R
SWANQUARTER      N/A     66 N/A N/A NE8G15    30.15S

$$

NCZ095-097-098-100-101-231300-
SOUTHERN COAST

CITY           SKY/WX    TMP DP  RH WIND       PRES   REMARKS
BEAUFORT       CLOUDY    70  60  70 NE9       30.17R
CEDAR ISLAND     N/A     72 N/A N/A N18G31    30.21S
JACKSONVILLE   CLOUDY    66  59  78 NE10      30.17R
NEWPORT        NOT AVBL
PINEY ISLAND   CLOUDY    72  60  66 NE17G26   30.17R
WILMINGTON     CLOUDY    66  62  87 NE14      30.16R


$$

NCZ011>013-027>030-043-044-078>080-089-090>093-098-231300-
COASTAL PLAIN

CITY           SKY/WX    TMP DP  RH WIND       PRES   REMARKS
AHOSKIE        CLOUDY    56  48  73 N5        30.27R
CLINTON        CLOUDY    63  57  81 NE10      30.21R
ELIZABETHTOWN  CLOUDY    64  59  83 NE3       30.19R
GOLDSBORO      CLOUDY    60  55  82 NE6       30.21R
GREENVILLE     CLOUDY    59  52  77 NE10      30.24S
HAVELOCK       CLOUDY    69  57  65 NE15      30.19R
KENANSVILLE    CLOUDY    63  55  77 N7        30.22R
KINSTON        CLOUDY    61  54  77 NE12G17   30.22R
NEW BERN       CLOUDY    66  59  78 NE9       30.21R
RICHLANDS      CLOUDY    64  57  77 N10       30.19R
ROANOKE RAPIDS NOT AVBL
ROCKY MOUNT    CLOUDY    59  47  64 NE12      30.26R
WASHINGTON     CLOUDY    59  55  86 N8        30.23R
WHITEVILLE     DRIZZLE   65  60  85 NE5       30.17R

$$

AMZ130-135-150-152-154-156-158-170-250-252-270-ANZ085-086-088-633-658-670-231300-
MARINE OBSERVATIONS

STATION/POSITION TIME  TEMP    WIND        PRES    WAVE   SWELL
                       AIR SEA DIR/SP/G            HT/PER HT/PER
                 (UTC) (F)     (DEG/KT/KT) (MB)    (FT/S) (FT/S)
CHESAPEAKE LIGHT 1100   65      30/ 19/ 20 1023.9
BUOY 44014       1200   69 76   40/ 14/ 16 1022.8    4/ 6   2/ 7
DUCK             1200   68 74   40/ 18/ 22 1022.5
2E DUCK          1200                        N/A     5/ 6
OREGON INLET     1200   69 74   30/ 15/ 20 1022.5
BUOY 44095       1200      74                N/A     5/ 5
20E OREGON INLET NOT AVBL
HATTERAS CG      NOT AVBL
DIAMOND BUOY     1200   75      20/ 19/ 23 1020.6    6/ 7
CAPE LOOKOUT     1100   72      40/ 24/ 26 1020.7
BEAUFORT LAB     1200   69 76   40/ 10/ 15 1020.7
30 SE NEW RIVER  1200   75 82   50/ 23/ 29 1019.2    6/ 6
5 SE WRIGHTSVILL 1100   71 79   50/ 21/ 27   N/A
BUOY 41002       1108   79 81   20/  6/  8 1019.0    3/ 7   3/ 7
BUOY 41004       1200   76 81   60/ 14/ 17 1017.9    4/ 5   2/ 8

$$



USA.gov is the U.S. government's official web portal to all federal, state and local government web resources and services.